| time (UTC) | temp F | wind direction | speed knots | gust knots | rain 1hr in | rain 24hr in | rain mn in | humidity % | barometer mb |
| 20260507015514 | 50 | 0 | 1.7 | 6.1 | 0.00 | 0.00 | 0.00 | 68 | 1024.4 |
| 20260507015014 | 50 | 244 | 3.5 | 6.1 | 0.00 | 0.00 | 0.00 | 68 | 1024.5 |
| 20260507014529 | 50 | 274 | 0.0 | 6.1 | 0.00 | 0.00 | 0.00 | 68 | 1024.6 |
| 20260507014013 | 50 | 244 | 2.6 | 7.0 | 0.00 | 0.00 | 0.00 | 68 | 1024.6 |
| 20260507013513 | 50 | 237 | 2.6 | 7.0 | 0.00 | 0.00 | 0.00 | 68 | 1024.7 |
| 20260507013028 | 50 | 240 | 4.3 | 7.0 | 0.00 | 0.00 | 0.00 | 68 | 1024.6 |
| 20260507012516 | 49 | 248 | 4.3 | 7.8 | 0.00 | 0.00 | 0.00 | 69 | 1024.6 |
| 20260507012017 | 50 | 255 | 5.2 | 7.8 | 0.00 | 0.00 | 0.00 | 69 | 1024.7 |
| 20260507011532 | 50 | 234 | 3.5 | 7.8 | 0.00 | 0.00 | 0.00 | 70 | 1024.7 |
| 20260507011020 | 50 | 248 | 5.2 | 7.8 | 0.00 | 0.00 | 0.00 | 70 | 1024.6 |
| 20260507010518 | 50 | 263 | 6.1 | 7.8 | 0.00 | 0.00 | 0.00 | 69 | 1024.6 |
| 20260507010028 | 50 | 241 | 3.5 | 10.4 | 0.00 | 0.00 | 0.00 | 70 | 1024.6 |
| 20260507005522 | 50 | 240 | 5.2 | 10.4 | 0.00 | 0.00 | 0.00 | 70 | 1024.6 |
| 20260507005018 | 50 | 236 | 6.1 | 9.6 | 0.00 | 0.00 | 0.00 | 71 | 1024.6 |
| 20260507004527 | 50 | 209 | 4.3 | 9.6 | 0.00 | 0.00 | 0.00 | 72 | 1024.5 |
| 20260507004011 | 50 | 223 | 5.2 | 9.6 | 0.00 | 0.00 | 0.00 | 73 | 1024.6 |
| 20260507003511 | 49 | 242 | 4.3 | 9.6 | 0.00 | 0.00 | 0.00 | 71 | 1024.5 |
| 20260507003031 | 49 | 265 | 6.1 | 9.6 | 0.00 | 0.00 | 0.00 | 71 | 1024.5 |
| 20260507002511 | 49 | 224 | 3.5 | 8.7 | 0.00 | 0.00 | 0.00 | 71 | 1024.4 |
| 20260507002012 | 49 | 263 | 7.0 | 8.7 | 0.00 | 0.00 | 0.00 | 71 | 1024.4 |
| 20260507001534 | 49 | 242 | 5.2 | 9.6 | 0.00 | 0.00 | 0.00 | 71 | 1024.4 |
| 20260507001015 | 49 | 248 | 6.1 | 9.6 | 0.00 | 0.00 | 0.00 | 70 | 1024.3 |
| 20260507000514 | 49 | 252 | 6.1 | 10.4 | 0.00 | 0.00 | 0.00 | 71 | 1024.3 |
| 20260507000032 | 49 | 254 | 6.1 | 10.4 | 0.00 | 0.00 | 0.00 | 72 | 1024.3 |
| 20260506235515 | 49 | 251 | 7.8 | 11.3 | 0.00 | 0.00 | 0.00 | 71 | 1024.3 |
| 20260506235011 | 49 | 246 | 7.8 | 11.3 | 0.00 | 0.00 | 0.00 | 70 | 1024.3 |
| 20260506234530 | 49 | 263 | 5.2 | 10.4 | 0.00 | 0.00 | 0.00 | 70 | 1024.2 |
| 20260506234015 | 49 | 246 | 7.0 | 11.3 | 0.00 | 0.00 | 0.00 | 70 | 1024.2 |
| 20260506233515 | 49 | 257 | 5.2 | 11.3 | 0.00 | 0.00 | 0.00 | 71 | 1024.2 |
| 20260506233031 | 49 | 256 | 7.0 | 11.3 | 0.00 | 0.00 | 0.00 | 71 | 1024.2 |
| 20260506232514 | 49 | 256 | 6.1 | 9.6 | 0.00 | 0.00 | 0.00 | 71 | 1024.1 |
| 20260506232015 | 49 | 270 | 5.2 | 8.7 | 0.00 | 0.00 | 0.00 | 71 | 1024.1 |
| 20260506231528 | 49 | 265 | 6.1 | 9.6 | 0.00 | 0.00 | 0.00 | 71 | 1024.1 |
| 20260506231018 | 49 | 261 | 5.2 | 10.4 | 0.00 | 0.00 | 0.00 | 71 | 1024.1 |
| 20260506230514 | 50 | 249 | 5.2 | 10.4 | 0.00 | 0.00 | 0.00 | 71 | 1024.0 |
| 20260506230031 | 49 | 261 | 7.0 | 12.2 | 0.00 | 0.00 | 0.00 | 70 | 1024.0 |
| 20260506225514 | 49 | 243 | 7.8 | 12.2 | 0.00 | 0.00 | 0.00 | 70 | 1023.9 |
| 20260506225015 | 50 | 240 | 7.0 | 12.2 | 0.00 | 0.00 | 0.00 | 69 | 1023.8 |
| 20260506224535 | 50 | 269 | 7.0 | 12.2 | 0.00 | 0.00 | 0.00 | 69 | 1023.8 |
| 20260506224015 | 50 | 260 | 8.7 | 12.2 | 0.00 | 0.00 | 0.00 | 67 | 1023.8 |
| 20260506223512 | 50 | 252 | 6.1 | 11.3 | 0.00 | 0.00 | 0.00 | 67 | 1023.9 |
| 20260506223031 | 50 | 329 | 7.0 | 12.2 | 0.00 | 0.00 | 0.00 | 66 | 1023.9 |
| 20260506222512 | 50 | 262 | 7.8 | 12.2 | 0.00 | 0.00 | 0.00 | 64 | 1023.8 |
| 20260506222015 | 50 | 273 | 6.1 | 10.4 | 0.00 | 0.00 | 0.00 | 66 | 1023.9 |
| 20260506221531 | 50 | 269 | 6.1 | 10.4 | 0.00 | 0.00 | 0.00 | 65 | 1023.8 |
| 20260506221011 | 50 | 245 | 7.0 | 10.4 | 0.00 | 0.00 | 0.00 | 65 | 1023.8 |
| 20260506220515 | 50 | 207 | 7.0 | 9.6 | 0.00 | 0.00 | 0.00 | 64 | 1023.8 |
| 20260506220034 | 50 | 281 | 7.0 | 9.6 | 0.00 | 0.00 | 0.00 | 64 | 1023.8 |
| 20260506215510 | 50 | 260 | 6.1 | 9.6 | 0.00 | 0.00 | 0.00 | 64 | 1023.8 |
| 20260506215012 | 50 | 275 | 6.1 | 10.4 | 0.00 | 0.00 | 0.00 | 63 | 1023.8 |
| 20260506214528 | 50 | 261 | 6.1 | 10.4 | 0.00 | 0.00 | 0.00 | 66 | 1023.7 |
| 20260506214015 | 50 | 256 | 7.0 | 11.3 | 0.00 | 0.00 | 0.00 | 65 | 1023.7 |
| 20260506213511 | 50 | 263 | 6.1 | 11.3 | 0.00 | 0.00 | 0.00 | 66 | 1023.8 |
| 20260506213027 | 50 | 253 | 8.7 | 11.3 | 0.00 | 0.00 | 0.00 | 65 | 1023.7 |
| 20260506212512 | 50 | 230 | 7.8 | 11.3 | 0.00 | 0.00 | 0.00 | 63 | 1023.7 |
| 20260506212013 | 50 | 269 | 5.2 | 10.4 | 0.00 | 0.00 | 0.00 | 63 | 1023.6 |
| 20260506211531 | 51 | 238 | 6.1 | 10.4 | 0.00 | 0.00 | 0.00 | 63 | 1023.6 |
| 20260506211014 | 51 | 256 | 3.5 | 7.8 | 0.00 | 0.00 | 0.00 | 63 | 1023.6 |
| 20260506210516 | 51 | 291 | 4.3 | 7.0 | 0.00 | 0.00 | 0.00 | 60 | 1023.6 |
| 20260506210032 | 51 | 319 | 1.7 | 6.1 | 0.00 | 0.00 | 0.00 | 59 | 1023.5 |
| 20260506205511 | 52 | 315 | 3.5 | 6.1 | 0.00 | 0.00 | 0.00 | 60 | 1023.5 |
| 20260506205012 | 52 | 254 | 2.6 | 7.0 | 0.00 | 0.00 | 0.00 | 60 | 1023.5 |
| 20260506204529 | 51 | 222 | 2.6 | 7.0 | 0.00 | 0.00 | 0.00 | 61 | 1023.4 |
| 20260506204012 | 52 | 275 | 3.5 | 6.1 | 0.00 | 0.00 | 0.00 | 59 | 1023.2 |
| 20260506203512 | 52 | 317 | 2.6 | 5.2 | 0.00 | 0.00 | 0.00 | 60 | 1023.3 |
| 20260506203030 | 52 | 306 | 2.6 | 5.2 | 0.00 | 0.00 | 0.00 | 60 | 1023.3 |
| 20260506202514 | 53 | 279 | 0.9 | 3.5 | 0.00 | 0.00 | 0.00 | 59 | 1023.2 |
| 20260506202012 | 53 | 0 | 0.0 | 1.7 | 0.00 | 0.00 | 0.00 | 59 | 1023.2 |
| 20260506201540 | 52 | 348 | 0.0 | 7.0 | 0.00 | 0.00 | 0.00 | 60 | 1023.1 |
| 20260506201014 | 52 | 306 | 2.6 | 7.0 | 0.00 | 0.00 | 0.00 | 59 | 1023.2 |
| 20260506200514 | 53 | 287 | 0.0 | 2.6 | 0.00 | 0.00 | 0.00 | 60 | 1023.2 |
| 20260506200028 | 53 | 0 | 0.0 | 2.6 | 0.00 | 0.00 | 0.00 | 60 | 1023.2 |
| 20260506195514 | 53 | 10 | 0.0 | 2.6 | 0.00 | 0.00 | 0.00 | 59 | 1023.2 |
| 20260506195016 | 53 | 335 | 0.0 | 1.7 | 0.00 | 0.00 | 0.00 | 60 | 1023.2 |
| 20260506194539 | 53 | 0 | 0.0 | 1.7 | 0.00 | 0.00 | 0.00 | 59 | 1023.1 |
| 20260506194017 | 54 | 0 | 0.0 | 1.7 | 0.00 | 0.00 | 0.00 | 58 | 1023.1 |
| 20260506193512 | 54 | 0 | 0.0 | 1.7 | 0.00 | 0.00 | 0.00 | 58 | 1023.1 |
| 20260506193033 | 53 | 335 | 0.0 | 1.7 | 0.00 | 0.00 | 0.00 | 59 | 1023.1 |
| 20260506192517 | 53 | 331 | 0.0 | 1.7 | 0.00 | 0.00 | 0.00 | 59 | 1023.1 |
| 20260506192014 | 52 | 333 | 0.0 | 1.7 | 0.00 | 0.00 | 0.00 | 61 | 1023.0 |
| 20260506191528 | 52 | 0 | 0.0 | 3.5 | 0.00 | 0.00 | 0.00 | 61 | 1023.0 |
| 20260506191015 | 52 | 0 | 0.0 | 3.5 | 0.00 | 0.00 | 0.00 | 62 | 1022.9 |
| 20260506190514 | 51 | 0 | 0.0 | 2.6 | 0.00 | 0.00 | 0.00 | 63 | 1022.9 |
| 20260506190028 | 51 | 0 | 0.0 | 1.7 | 0.00 | 0.00 | 0.00 | 63 | 1022.8 |
| 20260506185515 | 51 | 26 | 0.9 | 2.6 | 0.00 | 0.00 | 0.00 | 63 | 1022.8 |
| 20260506185014 | 51 | 0 | 0.0 | 2.6 | 0.00 | 0.00 | 0.00 | 62 | 1022.8 |
| 20260506184536 | 52 | 350 | 0.9 | 2.6 | 0.00 | 0.00 | 0.00 | 61 | 1022.8 |
| 20260506184014 | 52 | 0 | 0.0 | 1.7 | 0.00 | 0.00 | 0.00 | 61 | 1022.8 |
| 20260506183514 | 52 | 349 | 0.0 | 2.6 | 0.00 | 0.00 | 0.00 | 61 | 1022.7 |
| 20260506183030 | 52 | 0 | 0.0 | 2.6 | 0.00 | 0.00 | 0.00 | 63 | 1022.7 |
| 20260506182513 | 51 | 0 | 0.0 | 1.7 | 0.00 | 0.00 | 0.00 | 65 | 1022.7 |
| 20260506182018 | 50 | 334 | 0.0 | 2.6 | 0.00 | 0.00 | 0.00 | 65 | 1022.7 |
| 20260506181530 | 50 | 0 | 0.0 | 2.6 | 0.00 | 0.00 | 0.00 | 65 | 1022.7 |
| 20260506181011 | 50 | 0 | 0.0 | 2.6 | 0.00 | 0.00 | 0.00 | 65 | 1022.7 |
| 20260506180515 | 50 | 327 | 0.9 | 2.6 | 0.00 | 0.00 | 0.00 | 65 | 1022.7 |
| 20260506180030 | 50 | 0 | 0.0 | 2.6 | 0.00 | 0.00 | 0.00 | 65 | 1022.7 |
| 20260506175516 | 50 | 15 | 0.0 | 2.6 | 0.00 | 0.00 | 0.00 | 65 | 1022.7 |
| 20260506175014 | 50 | 13 | 0.9 | 2.6 | 0.00 | 0.00 | 0.00 | 66 | 1022.7 |
| 20260506174530 | 50 | 9 | 0.0 | 2.6 | 0.00 | 0.00 | 0.00 | 67 | 1022.7 |
| 20260506174014 | 49 | 5 | 0.0 | 2.6 | 0.00 | 0.00 | 0.00 | 69 | 1022.7 |
| 20260506173516 | 49 | 347 | 0.0 | 2.6 | 0.00 | 0.00 | 0.00 | 69 | 1022.8 |
| 20260506173030 | 50 | 0 | 0.9 | 2.6 | 0.00 | 0.00 | 0.00 | 70 | 1022.7 |
| 20260506172514 | 49 | 32 | 0.9 | 4.3 | 0.00 | 0.00 | 0.00 | 70 | 1022.7 |
| 20260506172017 | 48 | 344 | 1.7 | 4.3 | 0.00 | 0.00 | 0.00 | 70 | 1022.8 |
| 20260506171542 | 47 | 338 | 2.6 | 7.0 | 0.00 | 0.00 | 0.00 | 71 | 1022.8 |
| 20260506171011 | 47 | 9 | 3.5 | 7.0 | 0.00 | 0.00 | 0.00 | 70 | 1022.8 |
| 20260506170513 | 48 | 350 | 4.3 | 7.0 | 0.00 | 0.00 | 0.00 | 69 | 1022.8 |
| 20260506170029 | 48 | 348 | 0.9 | 7.0 | 0.00 | 0.00 | 0.00 | 70 | 1022.9 |
| 20260506165516 | 47 | 20 | 2.6 | 7.0 | 0.00 | 0.00 | 0.00 | 72 | 1022.9 |
| 20260506165018 | 47 | 9 | 3.5 | 5.2 | 0.00 | 0.00 | 0.00 | 72 | 1022.8 |
| 20260506164528 | 47 | 9 | 2.6 | 4.3 | 0.00 | 0.00 | 0.00 | 73 | 1022.8 |
| 20260506164019 | 47 | 317 | 1.7 | 6.1 | 0.00 | 0.00 | 0.00 | 73 | 1022.8 |
| 20260506163518 | 47 | 334 | 3.5 | 8.7 | 0.00 | 0.00 | 0.00 | 74 | 1022.7 |
| 20260506163038 | 46 | 10 | 4.3 | 8.7 | 0.00 | 0.00 | 0.00 | 74 | 1022.7 |
| 20260506162517 | 46 | 336 | 6.1 | 9.6 | 0.00 | 0.00 | 0.00 | 73 | 1022.6 |
| 20260506162015 | 46 | 329 | 7.0 | 9.6 | 0.00 | 0.00 | 0.00 | 73 | 1022.6 |
| 20260506161527 | 47 | 347 | 5.2 | 8.7 | 0.00 | 0.00 | 0.00 | 74 | 1022.6 |
| 20260506161014 | 47 | 360 | 3.5 | 8.7 | 0.00 | 0.00 | 0.00 | 73 | 1022.4 |
| 20260506160514 | 47 | 316 | 4.3 | 8.7 | 0.00 | 0.00 | 0.00 | 73 | 1022.5 |
| 20260506160032 | 47 | 360 | 3.5 | 7.8 | 0.00 | 0.00 | 0.00 | 73 | 1022.5 |
| 20260506155512 | 47 | 360 | 3.5 | 7.8 | 0.00 | 0.00 | 0.00 | 74 | 1022.3 |
| 20260506155014 | 47 | 66 | 3.5 | 7.8 | 0.00 | 0.00 | 0.00 | 74 | 1022.3 |
| 20260506154537 | 47 | 47 | 2.6 | 7.8 | 0.00 | 0.00 | 0.00 | 73 | 1022.2 |
| 20260506154019 | 46 | 320 | 2.6 | 7.8 | 0.00 | 0.00 | 0.00 | 74 | 1022.2 |
| 20260506153514 | 46 | 302 | 4.3 | 7.8 | 0.00 | 0.00 | 0.00 | 75 | 1022.1 |
| 20260506153027 | 46 | 33 | 1.7 | 9.6 | 0.00 | 0.00 | 0.00 | 75 | 1022.0 |
| 20260506152512 | 46 | 310 | 3.5 | 10.4 | 0.00 | 0.00 | 0.00 | 75 | 1022.0 |
| 20260506152012 | 46 | 315 | 6.1 | 10.4 | 0.00 | 0.00 | 0.00 | 75 | 1022.0 |
| 20260506151530 | 46 | 344 | 2.6 | 8.7 | 0.00 | 0.00 | 0.00 | 76 | 1022.0 |
| 20260506151011 | 46 | 32 | 3.5 | 8.7 | 0.00 | 0.00 | 0.00 | 75 | 1022.0 |
| 20260506150512 | 46 | 80 | 2.6 | 8.7 | 0.00 | 0.00 | 0.00 | 76 | 1022.0 |
| 20260506150031 | 46 | 41 | 2.6 | 7.0 | 0.00 | 0.00 | 0.00 | 76 | 1022.0 |
| 20260506145512 | 46 | 9 | 2.6 | 7.8 | 0.00 | 0.00 | 0.00 | 75 | 1022.0 |
| 20260506145012 | 46 | 64 | 1.7 | 7.8 | 0.00 | 0.00 | 0.00 | 75 | 1021.9 |
| 20260506144529 | 46 | 92 | 3.5 | 7.8 | 0.00 | 0.00 | 0.00 | 75 | 1021.8 |
| 20260506144014 | 46 | 9 | 1.7 | 9.6 | 0.00 | 0.00 | 0.00 | 75 | 1021.8 |
| 20260506143513 | 46 | 63 | 2.6 | 8.7 | 0.00 | 0.00 | 0.00 | 75 | 1021.8 |
| 20260506143028 | 46 | 296 | 2.6 | 8.7 | 0.00 | 0.00 | 0.00 | 75 | 1021.8 |
| 20260506142513 | 46 | 44 | 2.6 | 8.7 | 0.00 | 0.00 | 0.00 | 75 | 1021.7 |
| 20260506142012 | 46 | 11 | 2.6 | 7.8 | 0.00 | 0.00 | 0.00 | 75 | 1021.7 |
| 20260506141532 | 46 | 352 | 3.5 | 7.8 | 0.00 | 0.00 | 0.00 | 75 | 1021.7 |
| 20260506141011 | 46 | 281 | 3.5 | 11.3 | 0.00 | 0.00 | 0.00 | 75 | 1021.6 |
| 20260506140520 | 46 | 59 | 2.6 | 11.3 | 0.00 | 0.00 | 0.00 | 76 | 1021.7 |
| 20260506140037 | 46 | 138 | 5.2 | 10.4 | 0.00 | 0.00 | 0.00 | 76 | 1021.7 |
| 20260506135512 | 46 | 328 | 4.3 | 10.4 | 0.00 | 0.00 | 0.00 | 77 | 1021.6 |
| 20260506135014 | 46 | 323 | 3.5 | 12.2 | 0.00 | 0.00 | 0.00 | 76 | 1021.6 |
| 20260506134529 | 46 | 327 | 5.2 | 12.2 | 0.00 | 0.00 | 0.00 | 76 | 1021.5 |
| 20260506134013 | 46 | 13 | 4.3 | 13.0 | 0.00 | 0.00 | 0.00 | 77 | 1021.4 |
| 20260506133514 | 46 | 327 | 5.2 | 13.0 | 0.00 | 0.00 | 0.00 | 76 | 1021.4 |
| 20260506133028 | 46 | 5 | 6.1 | 13.0 | 0.00 | 0.00 | 0.00 | 76 | 1021.3 |
| 20260506132512 | 46 | 44 | 4.3 | 10.4 | 0.00 | 0.00 | 0.00 | 76 | 1021.1 |
| 20260506132015 | 46 | 29 | 3.5 | 7.8 | 0.00 | 0.00 | 0.00 | 76 | 1021.1 |
| 20260506131529 | 46 | 37 | 1.7 | 7.8 | 0.00 | 0.00 | 0.00 | 76 | 1021.1 |
| 20260506131014 | 46 | 55 | 2.6 | 7.8 | 0.00 | 0.00 | 0.00 | 77 | 1021.1 |
| 20260506130518 | 46 | 21 | 1.7 | 7.8 | 0.00 | 0.00 | 0.00 | 77 | 1021.1 |
| 20260506130028 | 46 | 9 | 2.6 | 7.8 | 0.00 | 0.00 | 0.00 | 77 | 1021.0 |
| 20260506125513 | 46 | 222 | 1.7 | 7.8 | 0.00 | 0.00 | 0.00 | 77 | 1021.1 |
| 20260506125013 | 46 | 70 | 1.7 | 7.8 | 0.00 | 0.00 | 0.00 | 78 | 1021.0 |
| 20260506124528 | 46 | 40 | 2.6 | 7.8 | 0.00 | 0.00 | 0.00 | 77 | 1020.9 |
| 20260506124014 | 46 | 263 | 2.6 | 8.7 | 0.00 | 0.00 | 0.00 | 77 | 1021.0 |
| 20260506123514 | 46 | 11 | 1.7 | 9.6 | 0.00 | 0.00 | 0.00 | 76 | 1021.0 |
| 20260506123027 | 46 | 163 | 2.6 | 9.6 | 0.00 | 0.00 | 0.00 | 77 | 1020.8 |
| 20260506122512 | 46 | 352 | 2.6 | 10.4 | 0.00 | 0.00 | 0.00 | 78 | 1020.9 |
| 20260506122014 | 46 | 21 | 4.3 | 12.2 | 0.00 | 0.00 | 0.00 | 79 | 1020.9 |
| 20260506121528 | 46 | 316 | 7.0 | 12.2 | 0.00 | 0.00 | 0.00 | 79 | 1020.9 |
| 20260506121014 | 46 | 334 | 4.3 | 12.2 | 0.00 | 0.00 | 0.00 | 79 | 1020.9 |
| 20260506120514 | 46 | 316 | 7.0 | 12.2 | 0.00 | 0.00 | 0.00 | 79 | 1020.8 |
| 20260506120034 | 46 | 9 | 7.0 | 12.2 | 0.00 | 0.00 | 0.00 | 78 | 1020.7 |
| 20260506115511 | 47 | 332 | 7.0 | 13.0 | 0.00 | 0.00 | 0.00 | 79 | 1020.7 |
| 20260506115016 | 47 | 9 | 2.6 | 13.0 | 0.00 | 0.00 | 0.00 | 79 | 1020.7 |
| 20260506114529 | 47 | 306 | 5.2 | 12.2 | 0.00 | 0.00 | 0.00 | 80 | 1020.6 |
| 20260506114015 | 47 | 294 | 3.5 | 11.3 | 0.00 | 0.00 | 0.00 | 79 | 1020.6 |
| 20260506113515 | 47 | 274 | 6.1 | 9.6 | 0.00 | 0.00 | 0.00 | 80 | 1020.5 |
| 20260506113028 | 47 | 322 | 3.5 | 8.7 | 0.00 | 0.00 | 0.00 | 80 | 1020.4 |
| 20260506112515 | 47 | 331 | 2.6 | 9.6 | 0.00 | 0.00 | 0.00 | 79 | 1020.4 |
| 20260506112012 | 47 | 287 | 4.3 | 10.4 | 0.00 | 0.00 | 0.00 | 80 | 1020.4 |
| 20260506111530 | 47 | 60 | 5.2 | 9.6 | 0.00 | 0.00 | 0.00 | 79 | 1020.4 |
| 20260506111012 | 47 | 28 | 3.5 | 8.7 | 0.00 | 0.00 | 0.00 | 79 | 1020.3 |
| 20260506110514 | 47 | 15 | 2.6 | 7.0 | 0.00 | 0.00 | 0.00 | 79 | 1020.3 |
| 20260506110029 | 47 | 337 | 1.7 | 7.0 | 0.00 | 0.00 | 0.00 | 79 | 1020.2 |
| 20260506105514 | 47 | 9 | 2.6 | 7.0 | 0.00 | 0.00 | 0.00 | 79 | 1020.1 |
| 20260506105015 | 47 | 26 | 1.7 | 7.8 | 0.00 | 0.00 | 0.00 | 79 | 1020.1 |
| 20260506104528 | 47 | 274 | 1.7 | 7.8 | 0.00 | 0.00 | 0.00 | 79 | 1020.2 |
| 20260506104015 | 47 | 303 | 1.7 | 5.2 | 0.00 | 0.00 | 0.00 | 80 | 1020.1 |
| 20260506103512 | 47 | 255 | 1.7 | 5.2 | 0.00 | 0.00 | 0.00 | 79 | 1020.1 |
| 20260506103029 | 47 | 333 | 0.9 | 4.3 | 0.00 | 0.00 | 0.00 | 80 | 1020.1 |
| 20260506102511 | 47 | 44 | 1.7 | 5.2 | 0.00 | 0.00 | 0.00 | 80 | 1020.2 |
| 20260506102015 | 47 | 337 | 1.7 | 7.0 | 0.00 | 0.00 | 0.00 | 80 | 1020.2 |
| 20260506101530 | 46 | 344 | 1.7 | 7.0 | 0.00 | 0.00 | 0.00 | 80 | 1020.2 |
| 20260506101015 | 46 | 9 | 1.7 | 4.3 | 0.00 | 0.00 | 0.00 | 81 | 1020.2 |
| 20260506100514 | 46 | 154 | 1.7 | 5.2 | 0.00 | 0.00 | 0.00 | 80 | 1020.1 |
| 20260506100030 | 46 | 272 | 1.7 | 5.2 | 0.00 | 0.00 | 0.00 | 81 | 1020.1 |
| 20260506095517 | 46 | 46 | 1.7 | 5.2 | 0.00 | 0.00 | 0.00 | 81 | 1020.1 |
| 20260506095014 | 46 | 336 | 0.9 | 7.0 | 0.00 | 0.00 | 0.00 | 81 | 1020.1 |
| 20260506094530 | 46 | 322 | 3.5 | 7.0 | 0.00 | 0.00 | 0.00 | 81 | 1019.9 |
| 20260506094014 | 46 | 348 | 1.7 | 4.3 | 0.00 | 0.00 | 0.00 | 80 | 1019.9 |
| 20260506093517 | 46 | 340 | 1.7 | 7.0 | 0.00 | 0.00 | 0.00 | 81 | 1019.9 |
| 20260506093047 | 46 | 9 | 1.7 | 7.0 | 0.00 | 0.00 | 0.00 | 81 | 1019.9 |
| 20260506092515 | 46 | 49 | 2.6 | 5.2 | 0.00 | 0.00 | 0.00 | 81 | 1019.9 |
| 20260506092013 | 46 | 14 | 1.7 | 7.0 | 0.00 | 0.00 | 0.00 | 81 | 1019.8 |
| 20260506091529 | 46 | 9 | 1.7 | 7.8 | 0.00 | 0.00 | 0.00 | 80 | 1019.8 |
| 20260506091014 | 46 | 15 | 1.7 | 7.8 | 0.00 | 0.00 | 0.00 | 80 | 1019.8 |
| 20260506090513 | 46 | 308 | 2.6 | 7.0 | 0.00 | 0.00 | 0.00 | 80 | 1019.8 |
| 20260506090027 | 46 | 329 | 0.9 | 4.3 | 0.00 | 0.00 | 0.00 | 80 | 1019.9 |
| 20260506085535 | 46 | 5 | 0.9 | 4.3 | 0.00 | 0.00 | 0.00 | 80 | 1019.8 |
| 20260506085013 | 47 | 309 | 1.7 | 5.2 | 0.00 | 0.00 | 0.00 | 79 | 1019.8 |
| 20260506084527 | 47 | 13 | 1.7 | 6.1 | 0.00 | 0.00 | 0.00 | 79 | 1019.8 |
| 20260506084017 | 47 | 30 | 1.7 | 6.1 | 0.00 | 0.00 | 0.00 | 78 | 1019.8 |
| 20260506083514 | 47 | 20 | 0.9 | 6.1 | 0.00 | 0.00 | 0.00 | 78 | 1019.8 |
| 20260506083026 | 47 | 13 | 1.7 | 9.6 | 0.00 | 0.00 | 0.00 | 78 | 1019.7 |
| 20260506082518 | 47 | 352 | 1.7 | 9.6 | 0.00 | 0.00 | 0.00 | 78 | 1019.8 |
| 20260506082013 | 47 | 333 | 2.6 | 9.6 | 0.00 | 0.00 | 0.00 | 77 | 1019.7 |
| 20260506081529 | 47 | 93 | 1.7 | 7.0 | 0.00 | 0.00 | 0.00 | 77 | 1019.7 |
| 20260506081016 | 47 | 67 | 1.7 | 7.0 | 0.00 | 0.00 | 0.00 | 76 | 1019.6 |
| 20260506080511 | 47 | 86 | 2.6 | 7.8 | 0.00 | 0.00 | 0.00 | 76 | 1019.6 |
| 20260506073514 | 47 | 94 | 1.7 | 7.8 | 0.00 | 0.00 | 0.00 | 75 | 1019.6 |
| 20260506073030 | 47 | 268 | 1.7 | 8.7 | 0.00 | 0.00 | 0.00 | 75 | 1019.5 |
| 20260506072512 | 47 | 24 | 1.7 | 8.7 | 0.00 | 0.00 | 0.00 | 75 | 1019.5 |
| 20260506072015 | 47 | 360 | 1.7 | 7.0 | 0.00 | 0.00 | 0.00 | 74 | 1019.5 |
| 20260506071528 | 47 | 29 | 1.7 | 7.8 | 0.00 | 0.00 | 0.00 | 74 | 1019.4 |
| 20260506071014 | 47 | 352 | 3.5 | 9.6 | 0.00 | 0.00 | 0.00 | 74 | 1019.4 |
| 20260506070514 | 47 | 26 | 4.3 | 9.6 | 0.00 | 0.00 | 0.00 | 73 | 1019.4 |
| 20260506062513 | 48 | 317 | 3.5 | 10.4 | 0.00 | 0.00 | 0.00 | 73 | 1018.9 |
| 20260506062011 | 48 | 348 | 5.2 | 10.4 | 0.00 | 0.00 | 0.00 | 72 | 1019.1 |
| 20260506061527 | 48 | 11 | 3.5 | 10.4 | 0.00 | 0.00 | 0.00 | 72 | 1019.1 |
| 20260506061010 | 48 | 323 | 5.2 | 10.4 | 0.00 | 0.00 | 0.00 | 71 | 1019.1 |
| 20260506060513 | 48 | 26 | 5.2 | 13.9 | 0.00 | 0.00 | 0.00 | 73 | 1019.0 |
| 20260506051011 | 48 | 28 | 7.8 | 15.6 | 0.00 | 0.00 | 0.00 | 72 | 1018.7 |
| 20260506050514 | 49 | 303 | 7.0 | 13.0 | 0.00 | 0.00 | 0.00 | 70 | 1018.7 |
| 20260506045016 | 49 | 9 | 5.2 | 10.4 | 0.00 | 0.00 | 0.00 | 70 | 1018.6 |
| 20260506044531 | 49 | 20 | 4.3 | 11.3 | 0.00 | 0.00 | 0.00 | 70 | 1018.6 |
| 20260506044013 | 49 | 63 | 4.3 | 11.3 | 0.00 | 0.00 | 0.00 | 70 | 1018.5 |
| 20260506043515 | 50 | 86 | 3.5 | 9.6 | 0.00 | 0.00 | 0.00 | 69 | 1018.4 |
| 20260506043027 | 50 | 285 | 4.3 | 7.8 | 0.00 | 0.00 | 0.00 | 69 | 1018.4 |
| 20260506042510 | 50 | 86 | 2.6 | 8.7 | 0.00 | 0.00 | 0.00 | 69 | 1018.3 |
| 20260506042012 | 50 | 56 | 2.6 | 8.7 | 0.00 | 0.00 | 0.00 | 68 | 1018.2 |
| 20260506041530 | 50 | 200 | 2.6 | 10.4 | 0.00 | 0.00 | 0.00 | 70 | 1018.0 |
| 20260506041013 | 51 | 288 | 2.6 | 10.4 | 0.00 | 0.00 | 0.00 | 69 | 1017.9 |
| 20260506040512 | 51 | 302 | 2.6 | 7.8 | 0.00 | 0.00 | 0.00 | 68 | 1017.7 |
| 20260506040030 | 51 | 9 | 2.6 | 8.7 | 0.00 | 0.00 | 0.00 | 68 | 1017.6 |
| 20260506035510 | 52 | 13 | 3.5 | 8.7 | 0.00 | 0.00 | 0.00 | 65 | 1017.5 |
| 20260506035012 | 52 | 112 | 4.3 | 10.4 | 0.00 | 0.00 | 0.00 | 67 | 1017.3 |
| 20260506034530 | 52 | 232 | 4.3 | 10.4 | 0.00 | 0.00 | 0.00 | 66 | 1017.2 |
| 20260506034013 | 52 | 90 | 4.3 | 10.4 | 0.00 | 0.00 | 0.00 | 65 | 1017.1 |
| 20260506033512 | 53 | 21 | 4.3 | 13.0 | 0.00 | 0.00 | 0.00 | 64 | 1017.1 |
| 20260506033033 | 53 | 336 | 1.7 | 13.0 | 0.00 | 0.00 | 0.00 | 63 | 1017.1 |
| 20260506032514 | 54 | 331 | 6.1 | 13.0 | 0.00 | 0.00 | 0.00 | 59 | 1017.1 |
| 20260506032011 | 54 | 350 | 2.6 | 11.3 | 0.00 | 0.00 | 0.00 | 62 | 1017.0 |
| 20260506031528 | 54 | 329 | 5.2 | 12.2 | 0.00 | 0.00 | 0.00 | 60 | 1016.9 |
| 20260506031013 | 54 | 17 | 3.5 | 12.2 | 0.00 | 0.00 | 0.00 | 60 | 1016.8 |
| 20260506030512 | 54 | 340 | 6.1 | 13.0 | 0.00 | 0.00 | 0.00 | 61 | 1016.7 |
| 20260506030033 | 55 | 323 | 4.3 | 13.0 | 0.00 | 0.00 | 0.00 | 59 | 1016.7 |
| 20260506025513 | 55 | 316 | 6.1 | 11.3 | 0.00 | 0.00 | 0.00 | 58 | 1016.7 |
| 20260506025013 | 56 | 327 | 1.7 | 7.8 | 0.00 | 0.00 | 0.00 | 57 | 1016.6 |
| 20260506024529 | 56 | 298 | 2.6 | 9.6 | 0.00 | 0.00 | 0.00 | 56 | 1016.6 |
| 20260506024013 | 56 | 53 | 3.5 | 9.6 | 0.00 | 0.00 | 0.00 | 56 | 1016.4 |
| 20260506023512 | 57 | 71 | 3.5 | 10.4 | 0.00 | 0.00 | 0.00 | 54 | 1016.2 |
| 20260506023030 | 57 | 248 | 4.3 | 10.4 | 0.00 | 0.00 | 0.00 | 56 | 1016.3 |
| 20260506022512 | 56 | 267 | 6.1 | 9.6 | 0.00 | 0.00 | 0.00 | 55 | 1016.3 |
| 20260506022013 | 57 | 281 | 7.0 | 9.6 | 0.00 | 0.00 | 0.00 | 55 | 1016.3 |
| 20260506021531 | 57 | 251 | 5.2 | 8.7 | 0.00 | 0.00 | 0.00 | 53 | 1016.4 |
| 20260506021011 | 57 | 252 | 6.1 | 8.7 | 0.00 | 0.00 | 0.00 | 53 | 1016.3 |
| 20260506020512 | 57 | 293 | 5.2 | 11.3 | 0.00 | 0.00 | 0.00 | 55 | 1016.3 |
| 20260506020053 | 57 | 263 | 6.1 | 11.3 | 0.00 | 0.00 | 0.00 | 56 | 1016.3 |